| time (UTC) | temp F | wind direction | speed knots | gust knots | rain 1hr in | rain 24hr in | rain mn in | humidity % | barometer mb |
| 20260902070405 | 73 | 207 | 0.0 | 0.0 | 0.00 | 0.00 | 0.00 | 81 | 1016.3 |
| 20260902065905 | 73 | 207 | 0.0 | 0.0 | 0.00 | 0.00 | 0.00 | 81 | 1016.4 |
| 20260902065405 | 73 | 207 | 0.0 | 0.0 | 0.00 | 0.00 | 0.00 | 81 | 1016.3 |
| 20260902064905 | 73 | 207 | 0.0 | 0.0 | 0.00 | 0.00 | 0.00 | 81 | 1016.3 |
| 20260902064405 | 73 | 207 | 0.0 | 0.0 | 0.00 | 0.00 | 0.00 | 81 | 1016.3 |
| 20260902063905 | 73 | 207 | 0.0 | 0.0 | 0.00 | 0.00 | 0.00 | 81 | 1016.3 |
| 20260902062905 | 74 | 206 | 0.0 | 0.0 | 0.00 | 0.00 | 0.00 | 80 | 1016.2 |
| 20260902062405 | 74 | 206 | 0.0 | 0.0 | 0.00 | 0.00 | 0.00 | 80 | 1016.2 |
| 20260902061905 | 74 | 206 | 0.0 | 0.0 | 0.00 | 0.00 | 0.00 | 80 | 1016.2 |
| 20260902061405 | 74 | 206 | 0.0 | 0.0 | 0.00 | 0.00 | 0.00 | 80 | 1016.2 |
| 20260902060905 | 74 | 206 | 0.0 | 0.0 | 0.00 | 0.00 | 0.00 | 80 | 1016.3 |
| 20260902060405 | 74 | 206 | 0.0 | 0.0 | 0.00 | 0.00 | 0.00 | 80 | 1016.3 |
| 20260902055905 | 74 | 206 | 0.0 | 0.0 | 0.00 | 0.00 | 0.00 | 80 | 1016.2 |
| 20260902055405 | 74 | 206 | 0.0 | 0.0 | 0.00 | 0.00 | 0.00 | 80 | 1016.2 |
| 20260902054904 | 74 | 206 | 0.0 | 0.0 | 0.00 | 0.00 | 0.00 | 79 | 1016.3 |
| 20260902054405 | 75 | 206 | 0.0 | 0.0 | 0.00 | 0.00 | 0.00 | 79 | 1016.3 |
| 20260902053905 | 75 | 206 | 0.0 | 0.0 | 0.00 | 0.00 | 0.00 | 79 | 1016.3 |
| 20260902052905 | 75 | 206 | 0.0 | 0.0 | 0.00 | 0.00 | 0.00 | 78 | 1016.2 |
| 20260902051405 | 76 | 206 | 0.0 | 0.0 | 0.00 | 0.00 | 0.00 | 78 | 1016.1 |
| 20260902050905 | 76 | 205 | 0.0 | 0.0 | 0.00 | 0.00 | 0.00 | 78 | 1016.1 |
| 20260902050405 | 76 | 205 | 0.0 | 0.0 | 0.00 | 0.00 | 0.00 | 79 | 1016.1 |
| 20260902044904 | 76 | 205 | 0.0 | 0.0 | 0.00 | 0.00 | 0.00 | 78 | 1015.9 |
| 20260902044405 | 76 | 205 | 0.0 | 0.0 | 0.00 | 0.00 | 0.00 | 78 | 1015.9 |
| 20260902043405 | 77 | 205 | 0.0 | 0.0 | 0.00 | 0.00 | 0.00 | 77 | 1015.9 |
| 20260902042905 | 77 | 205 | 0.0 | 0.0 | 0.00 | 0.00 | 0.00 | 77 | 1016.0 |
| 20260902042405 | 77 | 205 | 0.0 | 0.0 | 0.00 | 0.00 | 0.00 | 76 | 1016.1 |
| 20260902041404 | 77 | 205 | 0.0 | 0.0 | 0.00 | 0.00 | 0.00 | 75 | 1016.1 |
| 20260902040405 | 78 | 205 | 0.0 | 0.0 | 0.00 | 0.00 | 0.00 | 75 | 1016.2 |
| 20260902035905 | 78 | 205 | 0.0 | 0.0 | 0.00 | 0.00 | 0.00 | 74 | 1016.2 |
| 20260902035405 | 79 | 205 | 0.0 | 0.0 | 0.00 | 0.00 | 0.00 | 73 | 1016.2 |
| 20260902034405 | 79 | 205 | 0.0 | 0.0 | 0.00 | 0.00 | 0.00 | 73 | 1016.1 |
| 20260902033904 | 79 | 205 | 0.0 | 0.0 | 0.00 | 0.00 | 0.00 | 72 | 1016.1 |
| 20260902033405 | 80 | 205 | 0.0 | 0.0 | 0.00 | 0.00 | 0.00 | 72 | 1016.1 |
| 20260902032905 | 80 | 205 | 0.0 | 0.0 | 0.00 | 0.00 | 0.00 | 72 | 1016.2 |
| 20260902031905 | 80 | 205 | 0.0 | 0.0 | 0.00 | 0.00 | 0.00 | 71 | 1016.2 |
| 20260902031404 | 80 | 205 | 0.0 | 0.0 | 0.00 | 0.00 | 0.00 | 71 | 1016.2 |
| 20260902030905 | 81 | 205 | 0.0 | 0.0 | 0.00 | 0.00 | 0.00 | 70 | 1016.2 |
| 20260902030405 | 81 | 205 | 0.0 | 0.0 | 0.00 | 0.00 | 0.00 | 70 | 1016.1 |
| 20260902025904 | 81 | 205 | 0.0 | 0.0 | 0.00 | 0.00 | 0.00 | 70 | 1016.2 |
| 20260902025405 | 81 | 205 | 0.0 | 0.0 | 0.00 | 0.00 | 0.00 | 69 | 1016.2 |
| 20260902024904 | 82 | 205 | 0.0 | 0.0 | 0.00 | 0.00 | 0.00 | 68 | 1016.2 |
| 20260902024405 | 82 | 205 | 0.0 | 0.0 | 0.00 | 0.00 | 0.00 | 68 | 1016.2 |
| 20260902023904 | 82 | 205 | 0.0 | 0.0 | 0.00 | 0.00 | 0.00 | 68 | 1016.2 |
| 20260902023405 | 82 | 205 | 0.0 | 0.0 | 0.00 | 0.00 | 0.00 | 68 | 1016.1 |
| 20260902022905 | 82 | 205 | 0.0 | 0.0 | 0.00 | 0.00 | 0.00 | 67 | 1016.2 |
| 20260902020905 | 83 | 205 | 0.0 | 0.0 | 0.00 | 0.00 | 0.00 | 66 | 1016.0 |
| 20260902020405 | 83 | 205 | 0.0 | 0.0 | 0.00 | 0.00 | 0.00 | 65 | 1016.0 |
| 20260902015905 | 84 | 205 | 0.0 | 0.0 | 0.00 | 0.00 | 0.00 | 65 | 1015.9 |
| 20260902014405 | 85 | 205 | 0.0 | 0.0 | 0.00 | 0.00 | 0.00 | 63 | 1015.8 |
| 20260902013404 | 85 | 205 | 0.0 | 0.0 | 0.00 | 0.00 | 0.00 | 62 | 1015.7 |
| 20260902012905 | 85 | 205 | 0.0 | 0.0 | 0.00 | 0.00 | 0.00 | 62 | 1015.6 |
| 20260902012405 | 86 | 205 | 0.0 | 0.0 | 0.00 | 0.00 | 0.00 | 61 | 1015.6 |
| 20260902011904 | 86 | 205 | 0.0 | 0.0 | 0.00 | 0.00 | 0.00 | 60 | 1015.6 |
| 20260902010905 | 87 | 205 | 0.0 | 0.0 | 0.00 | 0.00 | 0.00 | 59 | 1015.6 |
| 20260902010404 | 87 | 205 | 0.0 | 0.0 | 0.00 | 0.00 | 0.00 | 58 | 1015.5 |
| 20260902005905 | 88 | 205 | 0.0 | 0.0 | 0.00 | 0.00 | 0.00 | 57 | 1015.4 |
| 20260902005404 | 88 | 205 | 0.0 | 0.0 | 0.00 | 0.00 | 0.00 | 56 | 1015.4 |
| 20260902004404 | 89 | 205 | 0.0 | 0.0 | 0.00 | 0.00 | 0.00 | 55 | 1015.5 |
| 20260902003904 | 89 | 205 | 0.0 | 0.0 | 0.00 | 0.00 | 0.00 | 54 | 1015.4 |
| 20260902003405 | 89 | 205 | 0.0 | 0.0 | 0.00 | 0.00 | 0.00 | 54 | 1015.4 |
| 20260902002905 | 90 | 206 | 0.0 | 0.0 | 0.00 | 0.00 | 0.00 | 53 | 1015.4 |
| 20260902002404 | 90 | 207 | 0.0 | 0.0 | 0.00 | 0.00 | 0.00 | 53 | 1015.3 |
| 20260902001904 | 90 | 207 | 0.0 | 0.0 | 0.00 | 0.00 | 0.00 | 52 | 1015.3 |
| 20260902001405 | 91 | 184 | 0.0 | 0.0 | 0.00 | 0.00 | 0.00 | 52 | 1015.3 |
| 20260902000904 | 91 | 184 | 0.0 | 0.0 | 0.00 | 0.00 | 0.00 | 51 | 1015.4 |
| 20260902000406 | 92 | 184 | 0.0 | 0.0 | 0.00 | 0.00 | 0.00 | 51 | 1015.4 |
| 20260901235405 | 93 | 206 | 1.7 | 4.3 | 0.00 | 0.00 | 0.00 | 48 | 1015.4 |
| 20260901234904 | 94 | 150 | 0.0 | 0.0 | 0.00 | 0.00 | 0.00 | 47 | 1015.4 |
| 20260901234404 | 94 | 227 | 0.0 | 0.0 | 0.00 | 0.00 | 0.00 | 47 | 1015.5 |
| 20260901233904 | 95 | 228 | 0.0 | 0.0 | 0.00 | 0.00 | 0.00 | 47 | 1015.6 |
| 20260901233405 | 95 | 229 | 0.0 | 0.0 | 0.00 | 0.00 | 0.00 | 46 | 1015.6 |
| 20260901232404 | 95 | 141 | 0.0 | 0.0 | 0.00 | 0.00 | 0.00 | 45 | 1015.5 |
| 20260901231905 | 94 | 197 | 0.9 | 6.1 | 0.00 | 0.00 | 0.00 | 45 | 1015.6 |
| 20260901231404 | 94 | 198 | 0.9 | 4.3 | 0.00 | 0.00 | 0.00 | 45 | 1015.6 |
| 20260901230904 | 94 | 191 | 0.0 | 5.2 | 0.00 | 0.00 | 0.00 | 45 | 1015.5 |
| 20260901230404 | 95 | 160 | 0.9 | 6.1 | 0.00 | 0.00 | 0.00 | 44 | 1015.5 |
| 20260901225904 | 95 | 198 | 1.7 | 6.1 | 0.00 | 0.00 | 0.00 | 44 | 1015.5 |
| 20260901225405 | 95 | 183 | 0.0 | 0.0 | 0.00 | 0.00 | 0.00 | 43 | 1015.6 |
| 20260901224905 | 96 | 207 | 0.9 | 6.1 | 0.00 | 0.00 | 0.00 | 43 | 1015.5 |
| 20260901223904 | 97 | 148 | 0.9 | 2.6 | 0.00 | 0.00 | 0.00 | 43 | 1015.4 |
| 20260901223405 | 97 | 148 | 0.9 | 2.6 | 0.00 | 0.00 | 0.00 | 42 | 1015.4 |
| 20260901222904 | 98 | 184 | 0.0 | 2.6 | 0.00 | 0.00 | 0.00 | 41 | 1015.3 |
| 20260901222404 | 99 | 186 | 0.9 | 6.1 | 0.00 | 0.00 | 0.00 | 41 | 1015.3 |
| 20260901221905 | 99 | 177 | 0.0 | 2.6 | 0.00 | 0.00 | 0.00 | 41 | 1015.3 |
| 20260901220904 | 99 | 164 | 0.9 | 8.7 | 0.00 | 0.00 | 0.00 | 42 | 1015.2 |
| 20260901220404 | 98 | 206 | 0.0 | 2.6 | 0.00 | 0.00 | 0.00 | 41 | 1015.2 |
| 20260901215905 | 98 | 187 | 0.0 | 1.7 | 0.00 | 0.00 | 0.00 | 42 | 1015.3 |
| 20260901215405 | 98 | 166 | 0.0 | 0.0 | 0.00 | 0.00 | 0.00 | 43 | 1015.1 |
| 20260901214905 | 98 | 169 | 0.0 | 0.0 | 0.00 | 0.00 | 0.00 | 41 | 1015.2 |
| 20260901214404 | 99 | 232 | 0.0 | 5.2 | 0.00 | 0.00 | 0.00 | 40 | 1015.2 |
| 20260901213904 | 100 | 143 | 0.9 | 5.2 | 0.00 | 0.00 | 0.00 | 40 | 1015.1 |
| 20260901213404 | 100 | 186 | 3.5 | 7.0 | 0.00 | 0.00 | 0.00 | 40 | 1015.2 |
| 20260901212904 | 100 | 206 | 0.0 | 2.6 | 0.00 | 0.00 | 0.00 | 41 | 1015.2 |
| 20260901212405 | 100 | 155 | 0.9 | 4.3 | 0.00 | 0.00 | 0.00 | 40 | 1015.2 |
| 20260901211904 | 100 | 177 | 1.7 | 4.3 | 0.00 | 0.00 | 0.00 | 39 | 1015.3 |
| 20260901211404 | 100 | 142 | 1.7 | 7.0 | 0.00 | 0.00 | 0.00 | 39 | 1015.2 |
| 20260901210904 | 101 | 159 | 0.0 | 2.6 | 0.00 | 0.00 | 0.00 | 38 | 1015.2 |
| 20260901210405 | 101 | 216 | 2.6 | 7.0 | 0.00 | 0.00 | 0.00 | 39 | 1015.3 |
| 20260901204904 | 102 | 159 | 0.9 | 7.0 | 0.00 | 0.00 | 0.00 | 39 | 1015.5 |
| 20260901204404 | 101 | 162 | 0.0 | 0.0 | 0.00 | 0.00 | 0.00 | 39 | 1015.6 |
| 20260901202905 | 102 | 199 | 0.0 | 2.6 | 0.00 | 0.00 | 0.00 | 40 | 1015.7 |
| 20260901202404 | 101 | 153 | 0.9 | 5.2 | 0.00 | 0.00 | 0.00 | 40 | 1015.7 |
| 20260901201904 | 101 | 207 | 0.0 | 4.3 | 0.00 | 0.00 | 0.00 | 40 | 1015.7 |
| 20260901200906 | 101 | 209 | 0.0 | 4.3 | 0.00 | 0.00 | 0.00 | 41 | 1015.7 |
| 20260901200404 | 100 | 222 | 0.0 | 4.3 | 0.00 | 0.00 | 0.00 | 40 | 1015.8 |
| 20260901195904 | 100 | 209 | 2.6 | 7.0 | 0.00 | 0.00 | 0.00 | 40 | 1015.8 |
| 20260901195405 | 100 | 222 | 0.9 | 6.1 | 0.00 | 0.00 | 0.00 | 39 | 1015.9 |
| 20260901194904 | 100 | 210 | 2.6 | 6.1 | 0.00 | 0.00 | 0.00 | 39 | 1015.9 |
| 20260901194405 | 100 | 175 | 0.9 | 2.6 | 0.00 | 0.00 | 0.00 | 39 | 1016.0 |
| 20260901193905 | 100 | 227 | 1.7 | 7.8 | 0.00 | 0.00 | 0.00 | 40 | 1016.0 |
| 20260901193409 | 100 | 215 | 0.0 | 0.0 | 0.00 | 0.00 | 0.00 | 40 | 1016.1 |
| 20260901192905 | 100 | 217 | 0.0 | 5.2 | 0.00 | 0.00 | 0.00 | 39 | 1016.2 |
| 20260901191904 | 99 | 181 | 0.0 | 5.2 | 0.00 | 0.00 | 0.00 | 42 | 1016.3 |
| 20260901191404 | 99 | 195 | 0.9 | 5.2 | 0.00 | 0.00 | 0.00 | 45 | 1016.4 |
| 20260901190904 | 98 | 229 | 4.3 | 7.0 | 0.00 | 0.00 | 0.00 | 43 | 1016.5 |
| 20260901185904 | 97 | 31 | 0.0 | 0.0 | 0.00 | 0.00 | 0.00 | 44 | 1016.6 |
| 20260901185404 | 97 | 295 | 0.0 | 0.0 | 0.00 | 0.00 | 0.00 | 43 | 1016.7 |
| 20260901184905 | 98 | 263 | 1.7 | 5.2 | 0.00 | 0.00 | 0.00 | 43 | 1016.7 |
| 20260901184404 | 98 | 280 | 2.6 | 7.0 | 0.00 | 0.00 | 0.00 | 42 | 1016.8 |
| 20260901183404 | 98 | 253 | 0.0 | 4.3 | 0.00 | 0.00 | 0.00 | 42 | 1016.9 |
| 20260901182404 | 97 | 222 | 0.0 | 7.8 | 0.00 | 0.00 | 0.00 | 46 | 1016.9 |
| 20260901181906 | 97 | 248 | 0.9 | 4.3 | 0.00 | 0.00 | 0.00 | 45 | 1017.0 |
| 20260901180904 | 96 | 236 | 2.6 | 6.1 | 0.00 | 0.00 | 0.00 | 47 | 1017.0 |
| 20260901180404 | 95 | 255 | 1.7 | 6.1 | 0.00 | 0.00 | 0.00 | 48 | 1017.2 |
| 20260901175904 | 95 | 276 | 0.9 | 5.2 | 0.00 | 0.00 | 0.00 | 47 | 1017.2 |
| 20260901175404 | 96 | 343 | 0.9 | 7.0 | 0.00 | 0.00 | 0.00 | 46 | 1017.2 |
| 20260901174404 | 95 | 266 | 0.9 | 5.2 | 0.00 | 0.00 | 0.00 | 47 | 1017.4 |
| 20260901173905 | 95 | 274 | 4.3 | 7.8 | 0.00 | 0.00 | 0.00 | 46 | 1017.4 |
| 20260901173404 | 95 | 289 | 0.9 | 5.2 | 0.00 | 0.00 | 0.00 | 46 | 1017.4 |
| 20260901172904 | 95 | 289 | 0.9 | 6.1 | 0.00 | 0.00 | 0.00 | 45 | 1017.4 |
| 20260901172404 | 96 | 283 | 2.6 | 5.2 | 0.00 | 0.00 | 0.00 | 46 | 1017.5 |
| 20260901171904 | 96 | 208 | 0.9 | 7.0 | 0.00 | 0.00 | 0.00 | 47 | 1017.5 |
| 20260901171404 | 96 | 253 | 0.0 | 5.2 | 0.00 | 0.00 | 0.00 | 47 | 1017.6 |
| 20260901170904 | 95 | 221 | 2.6 | 7.0 | 0.00 | 0.00 | 0.00 | 47 | 1017.7 |
| 20260901170404 | 95 | 300 | 3.5 | 7.0 | 0.00 | 0.00 | 0.00 | 48 | 1017.7 |
| 20260901165404 | 95 | 279 | 2.6 | 7.8 | 0.00 | 0.00 | 0.00 | 49 | 1017.8 |
| 20260901164404 | 94 | 232 | 1.7 | 10.4 | 0.00 | 0.00 | 0.00 | 50 | 1017.9 |
| 20260901163404 | 94 | 248 | 2.6 | 10.4 | 0.00 | 0.00 | 0.00 | 51 | 1018.1 |
| 20260901162904 | 94 | 268 | 0.9 | 7.0 | 0.00 | 0.00 | 0.00 | 51 | 1018.1 |
| 20260901162404 | 94 | 280 | 4.3 | 11.3 | 0.00 | 0.00 | 0.00 | 52 | 1018.2 |
| 20260901161904 | 93 | 260 | 2.6 | 10.4 | 0.00 | 0.00 | 0.00 | 52 | 1018.2 |
| 20260901161405 | 93 | 218 | 0.9 | 6.1 | 0.00 | 0.00 | 0.00 | 53 | 1018.2 |
| 20260901160905 | 93 | 273 | 1.7 | 8.7 | 0.00 | 0.00 | 0.00 | 54 | 1018.1 |
| 20260901160404 | 93 | 233 | 0.0 | 7.8 | 0.00 | 0.00 | 0.00 | 54 | 1018.1 |
| 20260901155904 | 93 | 253 | 0.9 | 6.1 | 0.00 | 0.00 | 0.00 | 55 | 1018.1 |
| 20260901155404 | 92 | 273 | 0.9 | 4.3 | 0.00 | 0.00 | 0.00 | 55 | 1018.2 |
| 20260901154404 | 91 | 214 | 2.6 | 6.1 | 0.00 | 0.00 | 0.00 | 56 | 1018.2 |
| 20260901153404 | 91 | 206 | 2.6 | 7.0 | 0.00 | 0.00 | 0.00 | 57 | 1018.3 |
| 20260901152904 | 91 | 284 | 1.7 | 6.1 | 0.00 | 0.00 | 0.00 | 58 | 1018.3 |
| 20260901152404 | 91 | 249 | 0.9 | 4.3 | 0.00 | 0.00 | 0.00 | 57 | 1018.4 |
| 20260901151903 | 90 | 234 | 2.6 | 7.0 | 0.00 | 0.00 | 0.00 | 57 | 1018.4 |
| 20260901151405 | 90 | 256 | 1.7 | 5.2 | 0.00 | 0.00 | 0.00 | 58 | 1018.4 |
| 20260901150904 | 89 | 268 | 3.5 | 8.7 | 0.00 | 0.00 | 0.00 | 60 | 1018.4 |
| 20260901150404 | 89 | 197 | 0.9 | 5.2 | 0.00 | 0.00 | 0.00 | 61 | 1018.4 |
| 20260901145904 | 88 | 236 | 0.9 | 4.3 | 0.00 | 0.00 | 0.00 | 61 | 1018.4 |
| 20260901145404 | 87 | 219 | 0.9 | 6.1 | 0.00 | 0.00 | 0.00 | 63 | 1018.4 |
| 20260901143904 | 86 | 249 | 1.7 | 5.2 | 0.00 | 0.00 | 0.00 | 65 | 1018.4 |
| 20260901143404 | 85 | 274 | 2.6 | 6.1 | 0.00 | 0.00 | 0.00 | 65 | 1018.4 |
| 20260901142404 | 84 | 224 | 0.0 | 5.2 | 0.00 | 0.00 | 0.00 | 69 | 1018.4 |
| 20260901141904 | 84 | 219 | 0.0 | 0.0 | 0.00 | 0.00 | 0.00 | 71 | 1018.4 |
| 20260901141403 | 83 | 219 | 0.0 | 0.0 | 0.00 | 0.00 | 0.00 | 70 | 1018.4 |
| 20260901140904 | 83 | 197 | 0.0 | 0.0 | 0.00 | 0.00 | 0.00 | 71 | 1018.5 |
| 20260901140403 | 82 | 202 | 0.0 | 0.0 | 0.00 | 0.00 | 0.00 | 73 | 1018.4 |
| 20260901135904 | 81 | 257 | 0.0 | 0.0 | 0.00 | 0.00 | 0.00 | 75 | 1018.4 |
| 20260901135404 | 80 | 215 | 0.0 | 0.0 | 0.00 | 0.00 | 0.00 | 77 | 1018.4 |
| 20260901134904 | 79 | 179 | 0.0 | 0.0 | 0.00 | 0.00 | 0.00 | 79 | 1018.4 |
| 20260901134404 | 79 | 188 | 0.0 | 1.7 | 0.00 | 0.00 | 0.00 | 80 | 1018.4 |
| 20260901133904 | 78 | 173 | 1.7 | 4.3 | 0.00 | 0.00 | 0.00 | 81 | 1018.4 |
| 20260901133404 | 78 | 190 | 0.0 | 0.0 | 0.00 | 0.00 | 0.00 | 82 | 1018.5 |
| 20260901132904 | 77 | 192 | 0.0 | 0.0 | 0.00 | 0.00 | 0.00 | 82 | 1018.5 |
| 20260901132404 | 76 | 192 | 0.0 | 0.0 | 0.00 | 0.00 | 0.00 | 82 | 1018.5 |
| 20260901131904 | 76 | 200 | 0.0 | 0.0 | 0.00 | 0.00 | 0.00 | 82 | 1018.5 |
| 20260901131404 | 75 | 200 | 0.0 | 0.0 | 0.00 | 0.00 | 0.00 | 82 | 1018.6 |
| 20260901130904 | 75 | 199 | 0.0 | 0.0 | 0.00 | 0.00 | 0.00 | 82 | 1018.5 |
| 20260901130404 | 74 | 199 | 0.0 | 0.0 | 0.00 | 0.00 | 0.00 | 82 | 1018.5 |
| 20260901125904 | 74 | 200 | 0.0 | 0.0 | 0.00 | 0.00 | 0.00 | 82 | 1018.4 |
| 20260901125404 | 73 | 200 | 0.0 | 0.0 | 0.00 | 0.00 | 0.00 | 82 | 1018.5 |
| 20260901124904 | 73 | 200 | 0.0 | 0.0 | 0.00 | 0.00 | 0.00 | 82 | 1018.5 |
| 20260901124403 | 72 | 201 | 0.0 | 0.0 | 0.00 | 0.00 | 0.00 | 82 | 1018.5 |
| 20260901123904 | 72 | 201 | 0.0 | 0.0 | 0.00 | 0.00 | 0.00 | 82 | 1018.5 |
| 20260901123404 | 71 | 201 | 0.0 | 0.0 | 0.00 | 0.00 | 0.00 | 82 | 1018.5 |
| 20260901122904 | 71 | 201 | 0.0 | 0.0 | 0.00 | 0.00 | 0.00 | 82 | 1018.5 |
| 20260901122403 | 71 | 200 | 0.0 | 0.0 | 0.00 | 0.00 | 0.00 | 82 | 1018.5 |
| 20260901121904 | 70 | 205 | 0.0 | 0.0 | 0.00 | 0.00 | 0.00 | 82 | 1018.5 |
| 20260901121404 | 70 | 204 | 0.0 | 0.0 | 0.00 | 0.00 | 0.00 | 82 | 1018.4 |
| 20260901120904 | 70 | 204 | 0.0 | 0.0 | 0.00 | 0.00 | 0.00 | 82 | 1018.3 |
| 20260901120403 | 70 | 204 | 0.0 | 0.0 | 0.00 | 0.00 | 0.00 | 82 | 1018.2 |
| 20260901115904 | 69 | 205 | 0.0 | 0.0 | 0.00 | 0.00 | 0.00 | 82 | 1018.2 |
| 20260901115404 | 69 | 204 | 0.0 | 0.0 | 0.00 | 0.00 | 0.00 | 82 | 1018.2 |
| 20260901114904 | 69 | 204 | 0.0 | 0.0 | 0.00 | 0.00 | 0.00 | 82 | 1018.1 |
| 20260901114403 | 69 | 205 | 0.0 | 0.0 | 0.00 | 0.00 | 0.00 | 82 | 1018.0 |
| 20260901113903 | 69 | 204 | 0.0 | 0.0 | 0.00 | 0.00 | 0.00 | 82 | 1017.9 |
| 20260901113404 | 69 | 204 | 0.0 | 0.0 | 0.00 | 0.00 | 0.00 | 82 | 1017.8 |
| 20260901112904 | 69 | 204 | 0.0 | 0.0 | 0.00 | 0.00 | 0.00 | 82 | 1017.7 |
| 20260901112403 | 69 | 205 | 0.0 | 0.0 | 0.00 | 0.00 | 0.00 | 82 | 1017.6 |
| 20260901111903 | 69 | 204 | 0.0 | 0.0 | 0.00 | 0.00 | 0.00 | 82 | 1017.5 |
| 20260901111404 | 69 | 204 | 0.0 | 0.0 | 0.00 | 0.00 | 0.00 | 82 | 1017.5 |
| 20260901110904 | 70 | 205 | 0.0 | 0.0 | 0.00 | 0.00 | 0.00 | 82 | 1017.5 |
| 20260901105904 | 70 | 204 | 0.0 | 0.0 | 0.00 | 0.00 | 0.00 | 82 | 1017.4 |
| 20260901105403 | 70 | 204 | 0.0 | 0.0 | 0.00 | 0.00 | 0.00 | 82 | 1017.4 |
| 20260901103904 | 70 | 205 | 0.0 | 0.0 | 0.00 | 0.00 | 0.00 | 82 | 1017.4 |
| 20260901103403 | 70 | 205 | 0.0 | 0.0 | 0.00 | 0.00 | 0.00 | 82 | 1017.4 |
| 20260901102904 | 70 | 205 | 0.0 | 0.0 | 0.00 | 0.00 | 0.00 | 82 | 1017.4 |
| 20260901101403 | 70 | 205 | 0.0 | 0.0 | 0.00 | 0.00 | 0.00 | 82 | 1017.2 |
| 20260901100904 | 70 | 205 | 0.0 | 0.0 | 0.00 | 0.00 | 0.00 | 82 | 1017.1 |
| 20260901100403 | 70 | 205 | 0.0 | 0.0 | 0.00 | 0.00 | 0.00 | 82 | 1017.1 |
| 20260901095904 | 70 | 205 | 0.0 | 0.0 | 0.00 | 0.00 | 0.00 | 82 | 1017.1 |
| 20260901095404 | 70 | 205 | 0.0 | 0.0 | 0.00 | 0.00 | 0.00 | 82 | 1017.1 |
| 20260901094404 | 70 | 205 | 0.0 | 0.0 | 0.00 | 0.00 | 0.00 | 82 | 1017.0 |
| 20260901093903 | 70 | 205 | 0.0 | 0.0 | 0.00 | 0.00 | 0.00 | 82 | 1017.0 |
| 20260901093404 | 70 | 205 | 0.0 | 0.0 | 0.00 | 0.00 | 0.00 | 82 | 1017.0 |
| 20260901092903 | 70 | 205 | 0.0 | 0.0 | 0.00 | 0.00 | 0.00 | 82 | 1016.9 |
| 20260901092404 | 70 | 205 | 0.0 | 0.0 | 0.00 | 0.00 | 0.00 | 82 | 1016.9 |
| 20260901091903 | 70 | 205 | 0.0 | 0.0 | 0.00 | 0.00 | 0.00 | 82 | 1017.0 |
| 20260901091403 | 70 | 205 | 0.0 | 0.0 | 0.00 | 0.00 | 0.00 | 82 | 1016.9 |
| 20260901090905 | 70 | 205 | 0.0 | 0.0 | 0.00 | 0.00 | 0.00 | 82 | 1016.9 |
| 20260901090405 | 71 | 205 | 0.0 | 0.0 | 0.00 | 0.00 | 0.00 | 81 | 1016.8 |
| 20260901085405 | 71 | 205 | 0.0 | 0.0 | 0.00 | 0.00 | 0.00 | 81 | 1016.8 |
| 20260901084906 | 71 | 205 | 0.0 | 0.0 | 0.00 | 0.00 | 0.00 | 81 | 1016.7 |
| 20260901084405 | 71 | 205 | 0.0 | 0.0 | 0.00 | 0.00 | 0.00 | 81 | 1016.7 |
| 20260901083905 | 71 | 205 | 0.0 | 0.0 | 0.00 | 0.00 | 0.00 | 81 | 1016.7 |
| 20260901082405 | 71 | 205 | 0.0 | 0.0 | 0.00 | 0.00 | 0.00 | 82 | 1016.6 |
| 20260901081905 | 71 | 205 | 0.0 | 0.0 | 0.00 | 0.00 | 0.00 | 82 | 1016.7 |
| 20260901080906 | 71 | 205 | 0.0 | 0.0 | 0.00 | 0.00 | 0.00 | 82 | 1016.6 |
| 20260901080405 | 72 | 205 | 0.0 | 0.0 | 0.00 | 0.00 | 0.00 | 81 | 1016.6 |
| 20260901075905 | 72 | 205 | 0.0 | 0.0 | 0.00 | 0.00 | 0.00 | 81 | 1016.6 |
| 20260901074905 | 72 | 205 | 0.0 | 0.0 | 0.00 | 0.00 | 0.00 | 81 | 1016.6 |
| 20260901074406 | 72 | 205 | 0.0 | 0.0 | 0.00 | 0.00 | 0.00 | 81 | 1016.6 |
| 20260901073905 | 72 | 205 | 0.0 | 0.0 | 0.00 | 0.00 | 0.00 | 81 | 1016.4 |
| 20260901073405 | 71 | 205 | 0.0 | 0.0 | 0.00 | 0.00 | 0.00 | 81 | 1016.5 |
| 20260901072405 | 71 | 205 | 0.0 | 0.0 | 0.00 | 0.00 | 0.00 | 81 | 1016.5 |
| 20260901071905 | 71 | 205 | 0.0 | 0.0 | 0.00 | 0.00 | 0.00 | 81 | 1016.6 |
| 20260901071405 | 72 | 205 | 0.0 | 0.0 | 0.00 | 0.00 | 0.00 | 80 | 1016.6 |
| 20260901070905 | 72 | 205 | 0.0 | 0.0 | 0.00 | 0.00 | 0.00 | 80 | 1016.6 |